• Join FlightAware (Why Join?)
  • Login
  • US Flag 
08:19PM EST


 

Airport Tracker/Info


-or-


 

Live Flight TrackerFlight Track Log ✈ EJA929 ✈ 20-Aug-2014 ✈ KITH - KBTL

Flight Track Log - Related Links

Times and Time Zones

All times are in EDT time to prevent confusion due to time zone crossing. See the EJA929 flight status page for this flight to view local times or setup timezone preferences in your user account.

Time Position Orientation Groundspeed Altitude Reporting Facility
EDT Latitude Longitude Course Direction KTS MPH feet Rate Location/Type
05:49PM 42.5475 -76.6069 285° West 252 290 7,800  Level Cleveland Center
05:50PM 42.5683 -76.7106 285° West 278 320 10,600 2,032 Climbing Cleveland Center
05:51PM 42.5919 -76.8300 285° West 324 373 12,000 1,645 Climbing Cleveland Center
05:52PM 42.6167 -76.9592 285° West 352 405 14,000 1,935 Climbing Cleveland Center
05:53PM 42.6475 -77.1206 285° West 367 422 16,000 1,776 Climbing Cleveland Center
05:54PM 42.6742 -77.2597 285° West 378 435 17,700 1,440 Climbing Cleveland Center
05:55PM 42.7014 -77.4011 285° West 386 444 19,000 774 Climbing Cleveland Center
05:56PM 42.7300 -77.5514 285° West 418 481 19,300 1,452 Climbing Cleveland Center
05:57PM 42.7622 -77.7247 284° West 408 470 22,000 2,081 Climbing Cleveland Center
05:58PM 42.7900 -77.8739 284° West 418 481 23,600 1,500 Climbing Cleveland Center
05:59PM 42.8178 -78.0261 284° West 418 481 25,100 1,597 Climbing Cleveland Center
06:00PM 42.8458 -78.1811 284° West 424 488 26,900 1,536 Climbing Cleveland Center
06:01PM 42.8742 -78.3419 284° West 434 499 28,300 1,488 Climbing Cleveland Center
06:02PM 42.9100 -78.5392 284° West 450 518 30,000 1,742 Climbing Cleveland Center
06:03PM 42.9333 -78.7092 281° West 458 527 31,900 1,935 Climbing Cleveland Center
06:04PM 42.9411 -78.8764 274° West 444 511 34,000 1,016 Climbing Cleveland Center
06:05PM 42.9494 -79.0503 274° West 457 526 34,000  Level Cleveland Center
06:06PM 42.9589 -79.2225 274° West 457 526 34,000  Level Cleveland Center
06:07PM 42.9669 -79.3953 274° West 457 526 34,000  Level Cleveland Center
06:08PM 42.9747 -79.5683 274° West 459 528 34,000  Level Cleveland Center
06:09PM 42.9822 -79.7467 273° West 473 544 34,000  Level Cleveland Center
06:10PM 42.9892 -79.9300 273° West 484 557 34,000  Level Cleveland Center
06:11PM 42.9997 -80.1303 274° West 482 555 34,000  Level Cleveland Center
06:12PM 43.0069 -80.3200 273° West 479 551 34,000  Level Cleveland Center
06:13PM 43.0147 -80.5092 273° West 479 551 34,000  Level Cleveland Center
06:14PM 43.0214 -80.6972 273° West 478 550 34,000  Level Cleveland Center
06:15PM 43.0272 -80.8856 272° West 474 545 34,000  Level Cleveland Center
06:16PM 43.0347 -81.0797 273° West 493 567 34,000  Level Cleveland Center
06:17PM 43.0358 -81.2792 271° West 502 578 34,000  Level Cleveland Center
06:18PM 43.0325 -81.4375 268° West 501 577 34,000  Level Cleveland Center
06:19PM 43.0267 -81.6628 268° West 499 574 34,000 -290 Level Cleveland Center
06:20PM 43.0131 -81.8489 264° West 497 572 33,400 -1,008 Descending Cleveland Center
06:22PM 42.9758 -82.0308 254° West 500 575 31,900 -1,440 Descending Cleveland Center
06:23PM 42.9414 -82.2092 255° West 488 562 30,400 -1,000 Descending Cleveland Center
06:23PM 42.9000 -82.3667 250° West 480 552 30,000 -214 Descending Toronto Center
06:24PM 42.8667 -82.5667 257° West 490 564 30,000 -403 Level Toronto Center
06:26PM 42.8578 -82.7678 267° West 458 527 29,100 -1,059 Descending Cleveland Center
06:27PM 42.8783 -82.9381 279° West 455 524 27,600 -1,548 Descending Cleveland Center
06:28PM 42.8953 -83.0997 278° West 444 511 25,900 -1,536 Descending Cleveland Center
06:29PM 42.9142 -83.2606 279° West 437 503 24,400 -1,824 Descending Cleveland Center
06:30PM 42.9344 -83.4475 278° West 422 486 22,100 -1,161 Descending Cleveland Center
06:31PM 42.9508 -83.6056 278° West 422 486 22,000 -48 Descending Cleveland Center
06:32PM 42.9533 -83.7664 271° West 426 490 22,000  Level Cleveland Center
06:33PM 42.8967 -83.9122 242° Southwest 443 510 22,000  Level Cleveland Center
06:34PM 42.8350 -84.0553 240° Southwest 440 506 22,000 -288 Level Cleveland Center
06:35PM 42.7586 -84.2231 238° Southwest 440 506 21,400 -1,536 Descending Cleveland Center
06:36PM 42.7100 -84.3361 240° Southwest 401 461 18,800 -2,613 Descending Cleveland Center
06:37PM 42.6519 -84.4669 239° Southwest 367 422 16,000 -1,355 Descending Cleveland Center
06:38PM 42.6106 -84.5631 240° Southwest 300 345 16,000 -1,306 Level Cleveland Center
06:39PM 42.5708 -84.6550 240° Southwest 284 327 13,300 -2,976 Descending Cleveland Center
06:40PM 42.5294 -84.7497 239° Southwest 269 310 9,800 -3,120 Descending Cleveland Center
06:41PM 42.4931 -84.8325 239° Southwest 258 297 6,800 -2,710 Descending Cleveland Center
06:42PM 42.4581 -84.9086 238° Southwest 242 278 4,200 -2,032 Descending Cleveland Center
06:43PM 42.4244 -84.9864 240° Southwest 206 237 2,600 -823 Descending Cleveland Center
06:44PM 42.3986 -85.0542 243° Southwest 200 230 2,500 -48 Descending Cleveland Center
06:45PM 42.3792 -85.1267 250° West 203 234 2,500 -97 Level Cleveland Center
06:46PM 42.3586 -85.1914 247° West 203 234 2,300 -480 Descending Cleveland Center
06:47PM 42.3236 -85.2289 218° Southwest 170 196 1,500 -762 Descending Cleveland Center